Walker Lake Weather Center

Moon Phase Calendar



Walker Lake Water Level
Online Cameras

 


      

Current Conditions in Hawthorne
5/9/2021 9:58:08 AM

57°F
Feels Like 53
Clear
Humidity
18%
Pressure
30.09"
Wind
10.4 mph (NW)
Dew Point
16°F
UV Index
5/10 (Moderate)
Visibility
6 mi

Hourly Forecast

Date & Time Sun, May 9
9:00 AM
Sun, May 9
10:00 AM
Sun, May 9
11:00 AM
Sun, May 9
12:00 PM
Sun, May 9
1:00 PM
Sun, May 9
2:00 PM
Sun, May 9
3:00 PM
Sun, May 9
4:00 PM
Sun, May 9
5:00 PM
Sun, May 9
6:00 PM
Sun, May 9
7:00 PM
Sun, May 9
8:00 PM
Sun, May 9
9:00 PM
Sun, May 9
10:00 PM
Sun, May 9
11:00 PM
Mon, May 10
12:00 AM
Mon, May 10
1:00 AM
Mon, May 10
2:00 AM
Mon, May 10
3:00 AM
Mon, May 10
4:00 AM
Mon, May 10
5:00 AM
Mon, May 10
6:00 AM
Mon, May 10
7:00 AM
Mon, May 10
8:00 AM
Mon, May 10
9:00 AM
Mon, May 10
10:00 AM
Mon, May 10
11:00 AM
Mon, May 10
12:00 PM
Mon, May 10
1:00 PM
Mon, May 10
2:00 PM
Mon, May 10
3:00 PM
Mon, May 10
4:00 PM
Mon, May 10
5:00 PM
Mon, May 10
6:00 PM
Mon, May 10
7:00 PM
Mon, May 10
8:00 PM
Mon, May 10
9:00 PM
Mon, May 10
10:00 PM
Mon, May 10
11:00 PM
Tue, May 11
12:00 AM
Tue, May 11
1:00 AM
Tue, May 11
2:00 AM
Tue, May 11
3:00 AM
Tue, May 11
4:00 AM
Tue, May 11
5:00 AM
Tue, May 11
6:00 AM
Tue, May 11
7:00 AM
Tue, May 11
8:00 AM
Condition
Clear

Clear

Clear

Clouds

Clouds

Clouds

Clouds

Clouds

Clouds

Clouds

Clouds

Clouds

Clouds

Clouds

Clouds

Clear

Clear

Clear

Clear

Clear

Clear

Clear

Clear

Clear

Clear

Clear

Clear

Clear

Clear

Clear

Clear

Clear

Clear

Clear

Clear

Clear

Clear

Clear

Clear

Clear

Clear

Clear

Clear

Clear

Clear

Clouds

Clouds

Clear
Temperature 58°F57°F58°F60°F63°F67°F71°F71°F71°F70°F68°F66°F65°F64°F62°F60°F58°F57°F56°F55°F54°F52°F53°F55°F56°F58°F61°F63°F65°F67°F68°F68°F68°F68°F66°F64°F62°F61°F60°F58°F57°F56°F55°F54°F53°F53°F57°F59°F
Feels Like 54°F53°F55°F57°F60°F64°F68°F68°F68°F68°F65°F63°F62°F61°F59°F57°F55°F54°F53°F52°F51°F49°F50°F52°F53°F55°F58°F60°F62°F64°F65°F65°F66°F65°F63°F60°F59°F58°F56°F55°F54°F53°F51°F50°F50°F49°F53°F55°F
Cloudiness 5%1%8%19%35%47%55%49%55%17%19%27%40%44%40%5%5%5%4%4%3%4%4%4%4%3%3%0%0%0%0%0%0%1%1%0%0%0%1%10%7%4%6%7%8%19%14%10%
Visibility 6 mi6 mi6 mi6 mi6 mi6 mi6 mi6 mi6 mi6 mi6 mi6 mi6 mi6 mi6 mi6 mi6 mi6 mi6 mi6 mi6 mi6 mi6 mi6 mi6 mi6 mi6 mi6 mi6 mi6 mi6 mi6 mi6 mi6 mi6 mi6 mi6 mi6 mi6 mi6 mi6 mi6 mi6 mi6 mi6 mi6 mi6 mi6 mi
Precipitation 0%0%0%0%0%0%0%0%0%0%0%0%0%0%0%0%0%0%0%0%0%0%0%0%0%0%0%0%0%0%0%0%0%0%0%0%0%0%0%0%0%0%0%0%0%0%0%0%
Humidity 17%18%17%16%15%14%13%13%14%15%17%18%19%20%23%29%33%36%38%40%42%44%41%38%35%33%30%26%21%18%16%14%13%13%13%14%15%17%20%23%25%26%27%28%29%30%24%22%
Dew Point 15°F16°F16°F16°F17°F18°F15°F16°F17°F18°F18°F18°F18°F19°F21°F24°F26°F27°F27°F27°F27°F27°F26°F26°F26°F26°F26°F24°F22°F19°F17°F15°F14°F12°F11°F11°F11°F12°F16°F17°F18°F18°F18°F18°F18°F18°F18°F17°F
Pressure 30.06"30.09"30.06"30.03"29.94"29.88"29.8"29.77"29.77"29.77"29.77"29.8"29.83"29.85"29.85"29.88"29.88"29.91"29.91"29.94"29.94"29.97"30"30"30"30"30"29.97"29.94"29.94"29.91"29.91"29.91"29.91"29.94"29.94"29.97"30"30"30.03"30.03"30"30"30"30"30.03"30.03"30.03"
Wind Speed 5.3 mph4.8 mph5.6 mph5.3 mph6.6 mph9.6 mph12.1 mph13 mph12.8 mph13.5 mph14.3 mph11.4 mph7.2 mph5.4 mph9.8 mph11 mph10.5 mph10.2 mph8.5 mph7.4 mph8.1 mph8.2 mph9.3 mph10.3 mph10.4 mph9.6 mph10 mph10.7 mph11.9 mph12.7 mph12.9 mph13.5 mph13.9 mph14.8 mph13.9 mph10.7 mph7.8 mph6.9 mph7.1 mph6 mph4.6 mph4 mph2.5 mph2.4 mph1.5 mph0.8 mph0.9 mph1.8 mph
Wind
Direction

N

N
10°
N

N
358°
N

N

N

N

N
15°
NNE
19°
NNE
22°
NNE
21°
NNE

N
355°
N
351°
N
335°
NNW
328°
NNW
325°
NW
314°
NW
319°
NW
320°
NW
329°
NNW
340°
NNW
349°
N
350°
N
353°
N
355°
N
351°
N
347°
NNW
347°
NNW
352°
N
357°
N

N

N
11°
N

N
357°
N
358°
N

N
352°
N
344°
NNW
339°
NNW
345°
NNW

N
26°
NNE
47°
NE
71°
ENE

Daily Forecast

Date High Low Precip. Humidity
Today
May 9

Clouds
71 °F
54 °F
0%
16%
Monday
May 10

Clear
68 °F
52 °F
0%
26%
Tuesday
May 11

Clear
75 °F
53 °F
0%
16%
Wednesday
May 12

Clear
84 °F
60 °F
0%
10%
Thursday
May 13

Clouds
84 °F
64 °F
0%
16%
Friday
May 14

Clear
87 °F
65 °F
0%
13%
Saturday
May 15

Clouds
82 °F
63 °F
0%
11%
Sunday
May 16

Clear
70 °F
53 °F
0%
18%
Monday
May 17

Clear
78 °F
54 °F
0%
11%
Tuesday
May 18

Clear
85 °F
61 °F
0%
7%
Wednesday
May 19

Rain
77 °F
63 °F
35%
22%
Thursday
May 20

Clear
79 °F
56 °F
0%
26%
Friday
May 21

Clear
86 °F
62 °F
0%
16%
Saturday
May 22

Clouds
85 °F
60 °F
0%
12%
Sunday
May 23

Clear
87 °F
63 °F
0%
13%
Monday
May 24

Clear
90 °F
67 °F
0%
12%

Temperature 8-14 Day Outlook



Precipitation 8-14 Day Outlook




Quick Links
Walker Lake News
Walker Lake Photos
Walker Lake Videos




About Us
Contact Us
Site Map
Search Site
Advertise With Us
   
Walker.LakesOnline.com
THE WALKER LAKE WEBSITE

Copyright 2021, Lakes Online
Privacy    |    Legal